Weather Roundup
Issued by NWS

Home | Current Version | Previous Version | Text Only | Print | Product List | Glossary On
Versions: 1 2 3 4 5 6 7 8 9 10 11 12 13 14 15 16 17 18 19 20 21 22 23 24 25 26 27 28 29 30 31 32 33 34 35 36 37 38 39 40 41 42 43 44 45 46 47 48 49 50
237
NZUS93 KARX 181259
HRRWXR

CURRENT HOURLY OBSERVATIONS ACROSS
MUCH OF THE UPPER MISSISSIPPI VALLEY
NATIONAL WEATHER SERVICE LA CROSSE WI
700 AM CST WED JAN 18 2017


...SOUTHEAST MINNESOTA...


CITY           SKY/WX    TMP DP  RH WIND       PRES   REMARKS
ROCHESTER      CLOUDY    26  26 100 S17       29.99S FOG     WCI  13
ROCHESTER/MAYO CLOUDY    27  27 100 S10G16    29.99F WCI  17
WINONA         CLOUDY    32  28  86 CALM      30.04S
AUSTIN         CLOUDY    27  27 100 S8        29.99F FOG     WCI  18
ALBERT LEA     CLOUDY    28  28 100 S3        29.97F FOG
DODGE CENTER   CLOUDY    27  25  93 S7        29.97S FOG     WCI  19
PRESTON        CLOUDY    27  25  95 S14       30.01F FOG     WCI  15
OWATONNA       CLOUDY    28  25  86 S10       29.96S WCI  19
FARIBAULT      CLOUDY    27  27 100 S10       29.95F WCI  17
$$

...ELSEWHERE IN MINNESOTA...


CITY           SKY/WX    TMP DP  RH WIND       PRES   REMARKS
MINNEAPOLIS    CLOUDY    30  25  81 S8        29.93F WCI  22
INTNL FALLS    CLOUDY    21  15  78 SW6       29.69R WCI  13
DULUTH         CLOUDY    27  25  92 SW16      29.75F WCI  15
RED WING       CLOUDY    28  25  86 S3        29.97F
REDWOOD FALLS  CLOUDY    25  21  85 S14       29.88F WCI  13
MANKATO        CLOUDY    27  26  96 S9        29.95F WCI  18
WORTHINGTON    CLOUDY    28  25  88 SW15      29.90F WCI  16
FAIRMONT       CLEAR     29  27  92 S9        29.95S WCI  20
$$

...SOUTHWEST WISCONSIN...


CITY           SKY/WX    TMP DP  RH WIND       PRES   REMARKS
LA CROSSE      CLOUDY    34  29  82 S10       30.05S WCI  26
PRAIRIE DU CHI CLOUDY    32  29  90 SW9       30.10R WCI  24
BOSCOBEL       CLOUDY    33  29  85 SW12G18   30.10R WCI  24
LONE ROCK      CLOUDY    33  31  92 W9        30.09R WCI  25
PLATTEVILLE    CLOUDY    32  32 100 W14       30.08F WCI  22
FORT MC COY    CLOUDY    31  30  96 SW6       30.05S WCI  25
CAMP DOUGLAS   CLOUDY    32  32 100 SW12      30.04R WCI  23
MAUSTON-NEW LI CLOUDY    32  31  95 SW7       30.04R FOG     WCI  26
VIROQUA        CLOUDY    30  30 100 SW10G16   30.04S WCI  21
WIS DELLS      FOG       32  32 100 SW12      30.05R VSB 1   WCI  23
$$

...ELSEWHERE IN WISCONSIN...


CITY           SKY/WX    TMP DP  RH WIND       PRES   REMARKS
MILWAUKEE      CLOUDY    36  33  89 W8        30.06R FOG     WCI  30
MADISON        CLOUDY    32  31  96 W5        30.08R WCI  27
GREEN BAY      CLOUDY    34  34 100 SW8       30.00F FOG     WCI  27
EAU CLAIRE     NOT AVBL
BLACK RVR FLS  CLOUDY    32  32 100 SW6       30.03R WCI  26
MEDFORD        CLOUDY    28  28  97 SW6       29.94F FOG     WCI  22
WAUSAU         CLOUDY    29  28  96 SW12      29.96F WCI  19
WIS RAPIDS     CLOUDY    31  31 100 SW9       30.03R WCI  23
MARSHFIELD     CLOUDY    29  28  96 SW10      29.97S WCI  20
RICE LAKE      CLOUDY    27  26  96 S9        29.94S WCI  17
$$

...NORTHEAST IOWA...


CITY           SKY/WX    TMP DP  RH WIND       PRES   REMARKS
WATERLOO       CLOUDY    29  27  92 S5        30.07F FOG     WCI  24
DUBUQUE        CLOUDY    30  30 100 SW10      30.09S FOG     WCI  21
DECORAH        CLOUDY    28  28 100 VRB7      30.04F WCI  21
MASON CITY     FOG       29  28  96 S9        30.02S VSB 1/2 WCI  20
CHARLES CITY   CLOUDY    28  28 100 S10       30.04F FOG     WCI  19
OELWEIN        CLOUDY    28  28 100 SW8       30.08R FOG     WCI  20
$$

...ELSEWHERE IN IOWA...


CITY           SKY/WX    TMP DP  RH WIND       PRES   REMARKS
DES MOINES     CLOUDY    31  30  96 S6        30.08F FOG     WCI  25
IOWA CITY      CLOUDY    32  29  88 CALM      30.13S
FORT DODGE     CLEAR     28  27  93 MISG      30.03R
MARSHALLTOWN   CLOUDY    30  30 100 S10       30.07S FOG     WCI  21
CEDAR RAPIDS   CLOUDY    29  27  92 S6        30.10S WCI  23
$$

...NORTHERN ILLINOIS...


CITY           SKY/WX    TMP DP  RH WIND       PRES   REMARKS
CHICAGO-OHARE  DRIZZLE   35  33  92 W12       30.10R FOG     WCI  27
CHICAGO-MIDWAY CLOUDY    33  32  96 W10       30.12R FOG     WCI  25
MOLINE         CLOUDY    33  29  85 W9        30.13R WCI  25
ROCKFORD       DRIZZLE   33  31  92 W12       30.13R FOG     WCI  24
PEORIA         CLOUDY    35  33  92 W6        30.16S WCI  30
$$

NOTE: "FAIR" INDICATES FEW OR NO CLOUDS BELOW 12,000 FEET WITH NO
SIGNIFICANT WEATHER AND/OR OBSTRUCTIONS TO VISIBILITY. WIND
SPEEDS ARE IN MILES-PER-HOUR.




USA.gov is the U.S. government's official web portal to all federal, state and local government web resources and services.